TimeCDT,TemperatureF,Dew PointF,Humidity,Sea Level PressureIn,VisibilityMPH,Wind Direction,Wind SpeedMPH,Gust SpeedMPH,PrecipitationIn,Events,Conditions,WindDirDegrees,DateUTC
12:52 AM,66.9,57.0,70,29.88,10.0,South,11.5,-,N/A,,Clear,180,2013-05-09 05:52:00
1:52 AM,64.9,55.9,73,29.87,10.0,South,11.5,-,N/A,,Mostly Cloudy,180,2013-05-09 06:52:00
2:52 AM,64.0,55.9,75,29.88,10.0,WNW,6.9,-,0.00,,Overcast,300,2013-05-09 07:52:00
3:52 AM,61.0,55.0,81,29.89,10.0,Calm,Calm,-,N/A,,Overcast,0,2013-05-09 08:52:00
4:52 AM,60.1,55.9,86,29.88,10.0,WNW,8.1,-,N/A,,Scattered Clouds,300,2013-05-09 09:52:00
5:26 AM,60.8,55.4,82,29.93,10.0,WSW,6.9,-,0.00,Rain-Thunderstorm,Light Rain,250,2013-05-09 10:26:00
5:41 AM,60.8,57.2,88,29.93,3.0,WSW,6.9,-,0.05,Rain-Thunderstorm,Thunderstorms and Rain,250,2013-05-09 10:41:00
5:52 AM,59.0,57.0,93,29.91,3.0,West,8.1,-,0.09,Rain-Thunderstorm,Thunderstorms and Rain,260,2013-05-09 10:52:00
6:23 AM,57.2,57.2,100,29.92,5.0,SW,6.9,-,0.12,Rain-Thunderstorm,Light Rain,220,2013-05-09 11:23:00
6:44 AM,57.2,57.2,100,29.91,6.0,SSE,4.6,-,0.15,Rain,Rain,160,2013-05-09 11:44:00
6:52 AM,57.9,55.9,93,29.88,7.0,SSE,4.6,-,0.16,Rain,Light Rain,150,2013-05-09 11:52:00
7:52 AM,59.0,57.0,93,29.81,10.0,SE,11.5,-,0.05,,Partly Cloudy,130,2013-05-09 12:52:00
8:10 AM,60.8,55.4,82,29.91,10.0,NW,12.7,29.9,N/A,,Partly Cloudy,310,2013-05-09 13:10:00
8:52 AM,61.0,57.0,87,29.91,10.0,West,10.4,-,N/A,,Partly Cloudy,280,2013-05-09 13:52:00
9:52 AM,66.0,57.0,73,29.91,10.0,West,8.1,-,N/A,,Mostly Cloudy,260,2013-05-09 14:52:00
10:52 AM,66.9,59.0,76,29.93,10.0,South,12.7,-,N/A,,Overcast,190,2013-05-09 15:52:00
11:52 AM,70.0,60.1,71,29.93,10.0,SSW,10.4,-,N/A,,Mostly Cloudy,210,2013-05-09 16:52:00
12:52 PM,71.6,59.0,64,29.95,10.0,SW,10.4,-,N/A,,Scattered Clouds,220,2013-05-09 17:52:00
1:52 PM,72.0,57.9,61,29.90,10.0,WSW,10.4,-,N/A,,Scattered Clouds,240,2013-05-09 18:52:00
2:52 PM,73.4,57.2,57,29.93,10.0,SW,12.7,18.4,N/A,,Scattered Clouds,220,2013-05-09 19:52:00
3:52 PM,73.0,59.0,61,29.92,10.0,SSW,11.5,-,N/A,,Overcast,210,2013-05-09 20:52:00
4:52 PM,75.0,57.9,55,29.89,10.0,SW,9.2,-,N/A,,Clear,230,2013-05-09 21:52:00
5:52 PM,73.9,57.9,57,29.89,10.0,SW,10.4,-,N/A,,Partly Cloudy,220,2013-05-09 22:52:00
6:52 PM,73.4,59.0,61,29.88,10.0,West,9.2,-,N/A,,Clear,270,2013-05-09 23:52:00
7:52 PM,70.0,57.9,65,29.87,10.0,WNW,5.8,-,N/A,,Clear,290,2013-05-10 00:52:00
8:52 PM,66.2,57.2,73,29.92,10.0,NNW,4.6,-,N/A,,Clear,340,2013-05-10 01:52:00
9:52 PM,64.9,57.9,78,29.91,10.0,NNW,3.5,-,N/A,,Clear,340,2013-05-10 02:52:00
10:52 PM,63.0,57.0,81,29.94,10.0,NNW,5.8,-,N/A,,Clear,330,2013-05-10 03:52:00
11:52 PM,62.6,55.4,77,29.96,10.0,NW,5.8,-,N/A,,Clear,320,2013-05-10 04:52:00